TimeCST,TemperatureF,Dew PointF,Humidity,Sea Level PressureIn,VisibilityMPH,Wind Direction,Wind SpeedMPH,Gust SpeedMPH,PrecipitationIn,Events,Conditions,WindDirDegrees,DateUTC
12:55 AM,17.1,14.0,88,29.68,10.0,Calm,Calm,-,N/A,,Mostly Cloudy,0,2009-01-01 06:55:00
1:55 AM,19.0,14.0,81,29.66,10.0,Calm,Calm,-,N/A,,Overcast,0,2009-01-01 07:55:00
2:55 AM,18.0,12.9,81,29.68,10.0,West,3.5,-,N/A,,Mostly Cloudy,270,2009-01-01 08:55:00
3:55 AM,19.9,16.0,85,29.70,10.0,Calm,Calm,-,N/A,,Overcast,0,2009-01-01 09:55:00
4:55 AM,25.0,19.0,78,29.69,10.0,Calm,Calm,-,N/A,,Scattered Clouds,0,2009-01-01 10:55:00
5:55 AM,28.9,21.9,75,29.69,10.0,WNW,9.2,-,N/A,,Clear,290,2009-01-01 11:55:00
6:55 AM,30.9,19.9,64,29.70,10.0,WNW,17.3,-,N/A,,Mostly Cloudy,300,2009-01-01 12:55:00
7:55 AM,30.9,21.0,67,29.73,10.0,WNW,18.4,25.3,N/A,,Partly Cloudy,290,2009-01-01 13:55:00
8:55 AM,30.0,19.0,64,29.73,10.0,WNW,19.6,29.9,N/A,,Clear,290,2009-01-01 14:55:00
9:55 AM,28.9,18.0,64,29.75,10.0,WNW,21.9,27.6,N/A,,Clear,300,2009-01-01 15:55:00
10:55 AM,30.9,18.0,59,29.76,10.0,WNW,20.7,28.8,N/A,,Clear,300,2009-01-01 16:55:00
11:55 AM,30.0,19.0,64,29.75,10.0,WNW,23.0,-,N/A,,Clear,290,2009-01-01 17:55:00
12:55 PM,30.9,19.9,64,29.74,10.0,West,25.3,31.1,N/A,,Clear,280,2009-01-01 18:55:00
1:55 PM,30.9,19.0,61,29.73,10.0,West,20.7,29.9,N/A,,Clear,280,2009-01-01 19:55:00
2:55 PM,30.0,17.1,59,29.74,10.0,WNW,19.6,33.4,N/A,,Clear,300,2009-01-01 20:55:00
3:55 PM,27.0,15.1,61,29.76,10.0,NW,28.8,41.4,N/A,,Clear,310,2009-01-01 21:55:00
4:55 PM,16.0,9.0,74,29.81,10.0,NNW,20.7,27.6,N/A,,Clear,340,2009-01-01 22:55:00
5:55 PM,9.0,1.0,70,29.86,10.0,North,16.1,-,N/A,,Clear,350,2009-01-01 23:55:00
6:55 PM,6.1,-2.9,67,29.88,10.0,NNW,13.8,-,N/A,,Clear,340,2009-01-02 00:55:00
7:55 PM,3.9,-5.1,66,29.90,10.0,NNW,11.5,23.0,N/A,,Clear,330,2009-01-02 01:55:00
8:55 PM,1.9,-6.0,69,29.90,10.0,NNW,10.4,-,N/A,,Clear,330,2009-01-02 02:55:00
9:55 PM,1.9,-7.1,66,29.88,10.0,NNW,16.1,19.6,N/A,,Mostly Cloudy,340,2009-01-02 03:55:00
10:55 PM,1.9,-7.1,66,29.91,10.0,North,4.6,-,N/A,,Overcast,10,2009-01-02 04:55:00
11:55 PM,1.9,-7.1,66,29.93,10.0,North,4.6,-,N/A,,Overcast,360,2009-01-02 05:55:00